Flag for U.S.A. Weather past 2 weeks in Cleveland, Ohio, U.S.A.

Now
20 °F

Mostly cloudy.


Feels Like: 9 °F
Forecast: 12 / 25 °F
Wind: 9 mph from Southwest

Location: Cleveland-Hopkins International Airport

Current Time: Mar 2, 2015 at 6:54:31 AM

Latest Report: Mar 2, 2015 at 6:03 AM


Visibility: 9 mi

Pressure: 30.36 "Hg

Humidity: 82%

Dew point: 15 °F

Location of ClevelandLocation

Historic Weather in Cleveland — Graph

°F

Cleveland temperature yesterday

Maximum temperature yesterday: 29 °F (at 2:51 PM)
Minimum temperature yesterday: 19 °F (at 12:01 AM)
Average temperature yesterday: 23 °F

Past Weeks' High & Low Weather Summary

 TemperatureHumidityPressure
High29 °F (Feb 22, 1:51 PM)92% (Feb 21, 1:51 PM)30.86 "Hg (Feb 21, 1:51 PM)
Low-13 °F (Feb 20, 5:51 AM)33% (Feb 28, 2:51 PM)29.77 "Hg (Feb 18, 12:03 PM)
Average10 °F68%30.28 "Hg
* Reported Feb 15 5:51 AM — Mar 2 5:51 AM, Cleveland, Weather by CustomWeather, © 2015

Note: Actual official high and low records may vary slightly from our data, if they occured in-between our weather recording intervals... More about our weather records

Advertising

Cleveland weather history for previous 24 hours

 ConditionsComfort  
Time TempWeatherWind HumidityBarometerVisibility
5:51 AM
Mon, Mar 2
20 °FMostly cloudy.9 mph82%30.39 "Hg8 mi
4:56 AM20 °FLight snow. Partly cloudy.12 mph78%30.31 "Hg7 mi
3:51 AM22 °FLight snow. Overcast.10 mph78%30.32 "Hg6 mi
2:51 AM22 °FLight snow. Overcast.14 mph78%30.33 "Hg4 mi
1:51 AM22 °FLight snow. Overcast.16 mph82%30.31 "Hg7 mi
12:51 AM22 °FIce fog.12 mph85%30.30 "Hg6 mi
11:51 PM
Sun, Mar 1
21 °FIce fog.10 mph88%30.30 "Hg6 mi
10:51 PM21 °FIce fog.10 mph88%30.29 "Hg5 mi
9:51 PM22 °FIce fog.5 mph89%30.28 "Hg4 mi
8:51 PM21 °FIce fog.5 mph92%30.27 "Hg5 mi
7:51 PM24 °FLight snow. Ice fog.5 mph84%30.28 "Hg5 mi
6:51 PM24 °FLight snow. Ice fog.10 mph88%30.29 "Hg4 mi
5:51 PM25 °FIce fog.9 mph88%30.28 "Hg3 mi
4:58 PM26 °FLight snow. Ice fog.N/A88%30.26 "Hg1 mi
3:51 PM28 °FSnow. Ice fog.6 mph85%30.30 "Hg1 mi
2:51 PM29 °FLight snow. Ice fog.5 mph85%30.31 "Hg1 mi
1:51 PM28 °FSnow. Ice fog.7 mph89%30.34 "Hg1 mi
12:51 PM28 °FLight snow. Ice fog.7 mph85%30.36 "Hg3 mi
11:51 AM27 °FLight snow. Ice fog.7 mph85%30.38 "Hg2 mi
10:58 AM26 °FLight snow. Ice fog.6 mph88%30.37 "Hg1 mi
9:51 AM24 °FLight snow. Ice fog.3 mph91%30.43 "Hg1 mi
8:51 AM23 °FLight snow. Ice fog.3 mph88%30.45 "Hg1 mi
8:00 AM22 °FLight snow. Ice fog.3 mph89%30.41 "Hg1 mi
6:51 AM21 °FLight snow. Ice fog.5 mph88%30.46 "Hg1 mi
Weather by CustomWeather, © 2015

See weather overviewHow to use our weather pages